Stations météo

réclame
Mon MeteoGroup
Floda, Suède (2476): Température de l'air & dewpoint: 16.06.2018 19:00:00 - 22.06.2018 19:00:00 (CEST)Floda, Suède (2476): Vitesse du vent & gusts: 16.06.2018 19:00:00 - 22.06.2018 19:00:00 (CEST)Floda, Suède (2476): Direction du vent: 16.06.2018 19:00:00 - 22.06.2018 19:00:00 (CEST)Floda, Suède (2476): reduced air pressure: 16.06.2018 19:00:00 - 22.06.2018 19:00:00 (CEST)Floda, Suède (2476): visibility: 16.06.2018 19:00:00 - 22.06.2018 19:00:00 (CEST)Floda, Suède (2476): Quantités de précipitations: 16.06.2018 19:00:00 - 22.06.2018 19:00:00 (CEST)
Date & Time tt [°C] td [°C] ff [km/h] ff [knt] fx [km/h] fx [knt] dd ppp [hPa] vv [km] rr [mm]
22.06.2018 19:00:00 - - - - - - - - - -
22.06.2018 18:00:00 14,7 3,8 21 11 44 24 WNW 1004,8 49 0,0
22.06.2018 17:00:00 16,6 4,3 14 8 51 28 W 1004,1 50 0,0
22.06.2018 16:00:00 15,9 3,3 21 11 51 28 W 1003,6 45 0,0
22.06.2018 15:00:00 16,1 3,5 26 14 49 26 WNW 1002,9 35 0,0
22.06.2018 14:00:00 15,5 5,1 9 5 49 26 WNW 1002,7 50 0,0
22.06.2018 13:00:00 17,8 6,0 14 7 39 21 WNW 1002,0 39 0,0
22.06.2018 12:00:00 16,6 6,1 21 11 43 23 W 1001,8 36 0,0
22.06.2018 11:00:00 15,7 6,7 19 11 44 24 WNW 1001,4 41 0,0
22.06.2018 10:00:00 12,7 5,8 24 13 44 24 WNW 1001,0 40 0,0
22.06.2018 09:00:00 10,1 6,3 17 9 39 21 WNW 1000,3 50 0,2
22.06.2018 08:00:00 9,2 6,3 19 11 45 25 WNW 999,5 14 0,1
22.06.2018 07:00:00 9,1 6,0 24 13 49 26 WNW 998,6 45 0,5
22.06.2018 06:00:00 8,8 6,4 22 12 49 26 WNW 997,9 12 0,6
22.06.2018 05:00:00 9,4 7,2 23 12 42 23 WNW 997,2 19 0,5
22.06.2018 04:00:00 9,5 7,1 22 12 41 22 WNW 996,5 23 0,1
22.06.2018 03:00:00 9,2 6,8 19 11 38 20 WNW 996,5 43 0,9
22.06.2018 02:00:00 8,7 6,7 17 9 38 20 WNW 996,9 8 1,4
22.06.2018 01:00:00 8,1 6,1 13 7 37 20 NW 997,5 9 1,6
22.06.2018 00:00:00 8,4 6,2 20 11 36 19 WNW 997,4 30 1,0
21.06.2018 23:00:00 8,0 6,0 14 7 41 22 WNW 997,6 12 1,9
21.06.2018 22:00:00 8,4 6,2 17 9 41 22 NW 997,7 22 0,9
21.06.2018 21:00:00 9,4 7,3 19 11 30 16 NNW 997,4 10 1,5
21.06.2018 20:00:00 10,0 8,1 13 7 30 16 NW 997,1 10 1,4
21.06.2018 19:00:00 11,1 9,0 10 6 20 11 WNW 997,2 4,5 0,0
21.06.2018 18:00:00 11,3 8,7 11 6 20 11 NW 997,4 23 0,0
21.06.2018 17:00:00 11,4 8,8 8 4 19 11 WNW 998,1 15 0,0
21.06.2018 16:00:00 11,5 9,4 9 5 25 13 NNW 998,3 11 3,3
21.06.2018 15:00:00 11,8 9,7 15 8 25 13 NNW 998,4 24 1,7
21.06.2018 14:00:00 13,2 11,3 10 6 28 15 NE 998,6 10 3,1
21.06.2018 13:00:00 13,9 10,7 13 7 28 15 NW 998,4 11 0,3
21.06.2018 12:00:00 14,1 9,5 2 1 10 5 W 999,3 16 0,1
21.06.2018 11:00:00 13,7 10,5 4 2 13 7 SSW 999,9 15 0,0
21.06.2018 10:00:00 13,0 10,4 4 2 15 8 NE 1000,2 47 0,0
21.06.2018 09:00:00 12,2 10,3 7 4 15 8 NE 1000,6 11 0,1
21.06.2018 08:00:00 - - - - - - - - - -
21.06.2018 07:00:00 11,4 9,5 4 2 13 7 NE 1001,8 4,2 2,7
21.06.2018 06:00:00 11,2 9,6 6 3 10 5 ENE 1002,3 7 0,8
21.06.2018 05:00:00 11,1 9,4 4 2 9 5 ENE 1003,0 27 0,0
21.06.2018 04:00:00 11,0 9,3 5 3 6 4 ENE 1003,7 10 0,8
21.06.2018 03:00:00 10,8 8,7 2 1 7 4 ENE 1004,6 8 2,0
21.06.2018 02:00:00 10,7 8,8 3 2 7 4 E 1005,2 4,2 2,9
21.06.2018 01:00:00 10,6 8,5 4 2 6 3 SE 1006,1 4,8 0,7
21.06.2018 00:00:00 10,7 8,6 4 2 9 5 S 1006,7 14 0,0
20.06.2018 23:00:00 10,7 8,5 4 2 9 5 S 1007,3 19 0,0
20.06.2018 22:00:00 10,8 8,6 4 2 5 3 SSW 1007,7 26 0,0
20.06.2018 21:00:00 11,0 8,0 0 0 5 3 N 1007,7 25 0,0
20.06.2018 20:00:00 10,6 7,1 0 0 8 5 N 1008,3 9 0,1
20.06.2018 19:00:00 10,5 7,7 2 1 18 10 SE 1008,8 7 0,7
20.06.2018 18:00:00 11,1 7,6 2 1 18 10 SSW 1009,4 9 1,0
20.06.2018 17:00:00 11,7 7,8 10 6 37 20 WSW 1010,7 18 1,0
20.06.2018 16:00:00 12,8 8,1 15 8 39 21 W 1011,3 15 0,3
20.06.2018 15:00:00 15,3 6,0 20 11 40 22 W 1011,4 24 0,0
20.06.2018 14:00:00 16,8 5,1 16 9 46 25 W 1011,4 21 0,0
20.06.2018 13:00:00 16,8 3,1 27 15 50 27 WSW 1011,8 34 0,0
20.06.2018 12:00:00 16,4 2,8 29 15 50 27 WSW 1012,4 32 0,0
20.06.2018 11:00:00 17,5 4,4 23 12 40 22 WSW 1011,9 31 0,0
20.06.2018 10:00:00 17,7 4,6 14 8 40 22 W 1012,0 34 0,0
20.06.2018 09:00:00 16,4 5,1 16 9 44 24 W 1011,9 34 0,0
20.06.2018 08:00:00 14,9 4,0 23 12 44 24 W 1012,3 42 0,0
20.06.2018 07:00:00 13,7 6,1 16 9 36 19 W 1012,1 28 0,0
20.06.2018 06:00:00 12,0 6,1 18 10 40 21 W 1011,8 20 0,0
20.06.2018 05:00:00 11,4 6,1 19 10 40 21 WSW 1011,7 25 0,0
20.06.2018 04:00:00 11,1 6,0 22 12 38 20 WSW 1011,0 24 0,0
20.06.2018 03:00:00 11,3 5,8 13 7 38 20 WSW 1010,8 28 0,0
20.06.2018 02:00:00 11,6 5,7 14 8 41 22 WSW 1010,3 25 0,0
20.06.2018 01:00:00 12,4 5,8 22 12 47 25 WSW 1010,2 25 0,0
20.06.2018 00:00:00 13,1 5,5 25 14 47 25 WSW 1009,9 29 0,0
19.06.2018 23:00:00 13,7 5,3 24 13 58 31 WSW 1009,4 30 0,0
19.06.2018 22:00:00 15,0 5,2 29 16 58 31 WSW 1009,4 34 0,0
19.06.2018 21:00:00 16,1 4,2 32 18 53 29 WSW 1008,8 29 0,0
19.06.2018 20:00:00 17,3 3,6 31 17 57 31 WSW 1008,5 42 0,0
19.06.2018 19:00:00 18,6 3,2 23 13 57 31 W 1008,0 38 0,0
19.06.2018 18:00:00 19,4 4,3 29 16 59 32 W 1007,7 32 0,0
19.06.2018 17:00:00 20,2 4,6 31 17 61 33 W 1006,9 28 0,0
19.06.2018 16:00:00 19,8 5,1 35 19 62 34 W 1006,5 41 0,0
19.06.2018 15:00:00 20,5 3,7 34 18 66 36 W 1006,3 30 0,0
19.06.2018 14:00:00 20,4 3,1 34 18 69 38 W 1005,9 31 0,0
19.06.2018 13:00:00 19,2 3,8 38 21 69 38 W 1005,2 40 0,0
19.06.2018 12:00:00 18,3 4,8 35 19 67 36 W 1004,9 35 0,0
19.06.2018 11:00:00 15,5 8,5 26 14 67 36 WSW 1004,9 21 0,1
19.06.2018 10:00:00 15,8 7,6 30 16 51 28 WSW 1004,8 25 0,0
19.06.2018 09:00:00 14,7 7,5 32 17 54 29 WSW 1004,9 24 0,0
19.06.2018 08:00:00 14,3 6,9 27 15 54 29 WSW 1005,1 28 0,0
19.06.2018 07:00:00 13,9 6,3 26 14 48 26 WSW 1005,7 32 0,0
19.06.2018 06:00:00 14,0 7,1 29 15 48 26 WSW 1005,5 32 0,0
19.06.2018 05:00:00 14,6 8,3 23 12 43 23 WSW 1005,9 45 0,0
19.06.2018 04:00:00 14,6 10,6 16 9 44 24 SW 1006,3 50 0,0
19.06.2018 03:00:00 14,8 10,4 21 11 44 24 SW 1007,3 50 0,0
19.06.2018 02:00:00 16,3 11,3 16 9 32 17 SSW 1007,3 50 0,0
19.06.2018 01:00:00 16,5 10,4 16 9 29 16 SSW 1008,0 50 0,0
19.06.2018 00:00:00 - - - - - - - - - -
18.06.2018 23:00:00 16,2 8,4 11 6 31 17 SSW 1009,6 50 0,0
18.06.2018 22:00:00 17,0 8,2 14 8 36 20 SW 1010,2 50 0,0
18.06.2018 21:00:00 17,7 7,4 17 9 36 20 SW 1010,4 45 0,0
18.06.2018 20:00:00 18,6 7,7 16 9 33 18 SW 1010,5 42 0,0
18.06.2018 19:00:00 18,4 7,2 16 8 39 21 WSW 1011,1 50 0,0
18.06.2018 18:00:00 18,8 6,6 22 12 39 21 WSW 1011,2 38 0,0
18.06.2018 17:00:00 19,1 7,5 19 10 41 22 WSW 1011,5 41 0,0
18.06.2018 16:00:00 18,9 7,6 27 15 41 22 WSW 1011,9 37 0,0
18.06.2018 15:00:00 17,6 8,2 20 11 37 20 WSW 1012,2 36 0,0
18.06.2018 14:00:00 17,2 8,6 23 12 37 20 SW 1012,2 47 0,0
18.06.2018 13:00:00 16,4 8,6 18 10 36 20 W 1012,3 41 0,0
18.06.2018 12:00:00 16,8 8,7 20 11 35 19 SW 1012,2 42 0,0
18.06.2018 11:00:00 16,4 9,1 19 11 34 18 SW 1012,3 31 0,0
18.06.2018 10:00:00 15,5 8,2 20 11 39 21 WSW 1012,1 34 0,0
18.06.2018 09:00:00 14,2 8,4 22 12 39 21 WSW 1012,1 36 0,0
18.06.2018 08:00:00 14,5 9,3 20 11 29 16 SW 1012,0 32 0,0
18.06.2018 07:00:00 12,9 8,8 16 8 24 13 SW 1012,0 33 0,0
18.06.2018 06:00:00 11,4 8,3 9 5 19 10 SSW 1012,0 39 0,0
18.06.2018 05:00:00 9,9 7,3 10 6 19 10 SSW 1011,9 39 0,0
18.06.2018 04:00:00 9,7 7,3 13 7 20 11 SSW 1011,9 43 0,0
18.06.2018 03:00:00 9,7 7,1 11 6 20 11 SSW 1012,0 50 0,0
18.06.2018 02:00:00 10,5 7,6 14 7 20 11 SSW 1011,9 50 0,0
18.06.2018 01:00:00 11,3 7,8 10 5 29 16 SW 1011,6 46 0,0
18.06.2018 00:00:00 12,2 8,5 10 5 35 19 SW 1011,1 45 0,0
17.06.2018 23:00:00 14,1 10,3 23 13 35 19 WSW 1010,8 44 0,0
17.06.2018 22:00:00 15,2 12,3 10 5 18 10 S 1010,0 26 0,0
17.06.2018 21:00:00 15,4 12,7 8 4 18 10 SSW 1009,9 14 0,0
17.06.2018 20:00:00 16,1 12,3 8 4 17 9 S 1009,6 28 0,0
17.06.2018 19:00:00 16,4 12,0 10 5 16 9 SSE 1010,0 29 0,0
17.06.2018 18:00:00 15,6 12,7 8 4 18 10 SE 1010,4 16 0,0
17.06.2018 17:00:00 14,3 11,6 7 4 27 14 SE 1010,9 27 0,8
17.06.2018 16:00:00 12,0 9,4 7 4 27 14 ESE 1011,9 8 3,6
17.06.2018 15:00:00 13,3 9,5 6 3 29 15 SSE 1013,0 9 1,1
17.06.2018 14:00:00 16,0 9,0 11 6 29 16 SE 1012,7 31 0,1
17.06.2018 13:00:00 17,9 10,8 9 5 30 16 SE 1013,1 26 0,0
17.06.2018 12:00:00 18,1 10,5 11 6 30 16 SE 1013,1 34 0,0
17.06.2018 11:00:00 19,0 10,8 16 9 29 15 SE 1013,7 32 0,0
17.06.2018 10:00:00 18,5 10,6 5 3 13 7 ESE 1014,1 35 0,0
17.06.2018 09:00:00 17,2 10,1 5 3 13 7 ESE 1014,6 37 0,0
17.06.2018 08:00:00 17,2 9,4 6 3 16 9 ESE 1014,8 38 0,0
17.06.2018 07:00:00 16,3 9,2 4 2 16 9 SE 1015,0 44 0,0
17.06.2018 06:00:00 14,9 9,3 5 3 14 8 ESE 1015,3 47 0,0
17.06.2018 05:00:00 14,1 8,9 8 4 14 8 ESE 1015,5 48 0,0
17.06.2018 04:00:00 13,3 7,5 8 4 11 6 ESE 1015,4 47 0,0
17.06.2018 03:00:00 11,9 6,8 5 3 9 5 E 1015,8 49 0,0
17.06.2018 02:00:00 11,6 6,5 4 2 10 6 E 1015,9 50 0,0
17.06.2018 01:00:00 11,7 6,6 5 3 10 6 E 1016,2 50 0,0
17.06.2018 00:00:00 14,1 6,9 6 3 8 5 ESE 1016,4 50 0,0
16.06.2018 23:00:00 15,0 5,8 5 3 12 7 ESE 1016,3 50 0,0
16.06.2018 22:00:00 17,1 5,1 3 2 18 10 SE 1016,5 50 0,0
16.06.2018 21:00:00 18,3 5,5 6 4 18 10 S 1016,2 50 0,0
16.06.2018 20:00:00 19,2 6,0 5 3 20 11 SSE 1016,3 39 0,0
16.06.2018 19:00:00 19,7 5,7 9 5 21 12 S 1016,2 45 0,0

tt = Température de l'air
td = dewpoint
ff = Vitesse du vent
fx = gusts
dd = Direction du vent
ppp = reduced air pressure
vv = visibility
rr = Quantités de précipitations

stations d'obs. à proximité